Simultaneous Nadir Overpasses (SNOs) Predictions

Prediction of SNOs between NOAA-19 and TERRA Satellite Orbit:

Table of predicted SNOs for the next 14.0 days since TLE Epoch: 6/9/2018
Index Date (NOAA-19) Time (NOAA-19) Lat,Lon (NOAA-19) SZA (NOAA-19 ) Date (TERRA) Time (TERRA) Lat,Lon (TERRA) SZA (TERRA ) Distance(km) Time Diff (sec)
1 06/09/2018 18:03:49 -77.10, 105.29 125.35 06/09/2018 18:04:01 -77.06, 105.30 125.39 4.36 12
2 06/09/2018 18:54:41 76.94, -86.73 54.55 06/09/2018 18:53:28 77.00, -87.28 54.54 15.37 73
3 06/11/2018 23:37:20 77.11,-158.05 54.49 06/11/2018 23:37:44 77.11,-157.93 54.51 3.02 24
4 06/12/2018 00:28:24 -77.05, 9.43 125.55 06/12/2018 00:27:13 -77.04, 9.43 125.58 1.44 71
5 06/14/2018 05:11:00 -77.10, -61.36 125.64 06/14/2018 05:11:30 -77.11, -61.40 125.63 1.22 30
6 06/14/2018 06:01:55 77.06, 106.08 54.33 06/14/2018 06:00:57 77.04, 106.00 54.29 2.84 58
7 06/16/2018 10:44:30 77.11, 35.30 54.27 06/16/2018 10:45:13 77.11, 35.17 54.27 3.02 43
8 06/16/2018 11:35:34 -77.06,-157.26 125.77 06/16/2018 11:34:41 -77.09,-157.27 125.76 2.67 53
9 06/18/2018 16:18:10 -77.12, 131.91 125.79 06/18/2018 16:18:58 -77.15, 131.91 125.74 3.87 48
10 06/18/2018 17:09:06 77.11, -60.78 54.21 06/18/2018 17:08:25 77.09, -60.71 54.18 3.12 41
11 06/20/2018 21:51:42 77.16,-131.58 54.21 06/20/2018 21:52:42 77.15,-131.54 54.22 1.38 60




NCC Satellite Simultaneous Nadir Overpasses (SNOs) Prediction Service
